CAPE
237 280 73 21 3 364 462 408 367 426 414 277 378 540 585 671 847 980 993 872 749 747 706 658 668 758 856 895 885 689 420 513 510 327 324 112 56 20 0 74 47 0 4
228 193 0 4 41 49 401 278 381 481 474 580 675 776 821 903 988 890 749 556 439 385 400 442 448 420 369 318 347 484 606 611 324 291 597 330 327 96 14 57 0 0 1
62 50 0 3 79 60 270 115 182 218 541 758 798 898 923 937 815 678 464 343 250 191 227 279 312 299 258 205 195 267 576 832 519 419 402 926 327 228 261 92 25 31 30
70 0 0 60 97 104 236 214 236 539 698 893 926 942 916 818 668 525 442 383 358 324 282 238 239 222 229 196 144 104 179 373 649 835 1407 846 835 329 405 405 182 109 52
0 25 111 97 202 349 416 471 587 598 817 921 934 884 796 683 551 432 339 345 418 432 395 308 230 164 121 87 80 71 41 65 421 1065 1120 775 1070 574 454 485 309 218 341
0 21 58 101 222 429 535 512 614 749 810 940 940 867 717 522 422 390 341 371 357 279 260 227 150 104 91 81 47 23 0 0 145 891 780 551 1308 605 427 570 687 429 88
0 0 52 113 190 412 604 627 674 794 817 941 963 866 653 495 373 320 310 328 309 314 256 297 248 240 237 282 387 373 196 56 504 749 1039 1036 1411 736 640 568 410 355 244
0 0 10 66 122 171 527 618 749 769 822 977 981 825 590 425 329 276 218 227 236 377 534 661 716 761 776 706 719 785 775 453 497 934 1071 1075 544 494 755 956 823 531 401
0 35 43 77 95 133 425 557 663 712 708 736 694 541 380 181 88 69 61 416 498 654 714 775 827 933 962 880 782 814 823 812 1140 1252 1005 1351 615 391 685 991 1159 1054 892
0 79 0 50 84 58 58 324 475 539 570 559 398 354 102 21 99 140 359 375 364 407 540 561 392 299 292 272 186 191 368 741 1919 878 1210 1238 506 336 773 960 1300 1288 1199
0 0 0 2 76 73 48 238 310 327 291 174 91 92 8 328 938 502 582 310 283 223 196 177 175 225 334 429 370 358 760 1595 892 927 1451 969 637 509 746 842 1140 1414 1247
0 0 0 12 41 109 194 275 191 130 84 110 286 789 302 213 433 115 533 594 512 439 536 469 534 620 785 880 773 713 883 405 605 505 1665 898 492 798 943 1101 888 1022 1325
0 0 0 0 21 0 3 107 100 251 250 523 647 552 193 120 75 204 754 1312 1472 809 1086 834 872 766 537 542 393 520 599 532 277 331 1051 761 470 519 1176 1347 1311 1037 1171
0 0 0 0 121 74 3 53 54 65 138 160 190 296 209 181 436 395 361 495 432 339 389 315 177 517 523 474 322 323 292 198 168 203 510 1037 836 828 1119 1350 1697 1662 1317
0 0 0 0 0 25 116 53 189 86 65 75 123 397 574 723 1068 1095 1068 934 757 577 467 400 413 452 507 588 716 724 692 613 349 319 317 857 971 839 1183 1528 1774 2165 2124
0 0 0 18 291 216 533 599 241 60 236 198 236 248 454 740 887 789 800 659 537 319 227 229 243 384 404 493 626 597 666 784 898 1092 1232 972 1411 1147 1601 2030 2154 2115 2381
0 2 129 430 643 904 769 612 352 244 183 144 45 17 30 68 208 338 323 223 77 59 45 56 76 101 153 284 346 205 222 374 584 941 1168 1846 1021 237 70 42 292 1156 1729
1 14 103 191 341 385 289 122 82 59 31 14 1 0 0 0 0 18 31 2 0 0 0 0 0 0 0 10 0 0 0 0 92 1023 781 417 246 131 0 0 1 37 280
0 9 23 95 229 97 65 55 21 3 0 0 0 0 0 0 0 0 0 0 0 0 0 0 0 0 0 0 0 0 0 21 396 385 74 0 0 0 0 0 0 0 0
2 1 18 42 24 10 14 14 1 0 0 0 0 0 0 0 0 0 0 0 0 0 0 0 0 0 0 0 0 0 6 8 165 56 2 0 0 0 0 0 0 0 0
0 0 5 2 4 8 0 2 0 0 0 0 0 0 0 0 0 0 0 0 0 0 0 0 0 0 0 0 0 0 30 3 0 0 0 0 0 0 0 0 0 0 0
0 0 3 6 5 4 4 2 1 0 0 0 0 0 0 0 0 0 0 0 0 0 0 0 0 0 0 0 0 0 0 5 0 0 0 0 0 0 0 0 0 0 0
0 0 2 4 4 5 3 0 0 0 0 0 0 0 0 0 0 0 0 0 0 0 0 0 0 0 0 0 0 0 0 0 0 0 0 0 0 0 0 0 0 0 0
0 0 0 3 2 1 3 2 1 0 0 0 0 0 0 0 0 0 0 0 0 0 0 0 0 0 0 0 0 0 0 0 0 0 0 0 0 0 0 0 0 0 0
0 0 0 3 7 6 6 5 6 3 0 0 0 0 0 0 0 0 0 0 0 0 0 0 0 0 0 0 0 0 0 0 0 0 0 0 0 0 0 0 0 0 0
0 0 0 3 5 10 5 5 0 0 0 0 0 0 0 0 0 0 0 0 0 0 0 0 0 0 0 0 0 0 0 0 0 0 0 0 0 0 0 0 0 0 0
CIN
-61 -103 -128 -113 -0 -6 -0 -7 -10 -3 -0 -12 -4 -0 -1 -1 -0 -0 -0 -5 -15 -15 -19 -28 -33 -22 -19 -16 -20 -37 -56 -45 -50 -77 -79 -109 -124 -123 -0 -96 -101 -0 -38
-84 -98 -0 -0 -31 -44 -13 -15 -12 -1 -1 -1 -1 -1 -1 -0 -0 -3 -11 -32 -48 -55 -56 -56 -55 -50 -56 -69 -64 -49 -46 -51 -78 -80 -66 -82 -80 -98 -82 -106 -0 -0 -17
-128 -177 -0 -0 -73 -61 -25 -37 -22 -14 -1 -1 -1 -0 -0 -0 -5 -17 -41 -58 -81 -84 -99 -81 -80 -78 -77 -90 -101 -83 -56 -44 -74 -75 -81 -4 -51 -90 -80 -98 -160 -168 -172
-116 -0 -0 -131 -88 -58 -27 -29 -24 -1 -1 -1 -0 -0 -0 -0 -13 -31 -44 -53 -63 -75 -82 -87 -91 -94 -100 -103 -115 -127 -119 -90 -85 -75 -36 -27 -22 -95 -68 -55 -70 -98 -160
-0 -70 -153 -135 -69 -35 -23 -15 -4 -3 -2 -0 -0 -0 -0 -3 -17 -37 -57 -67 -65 -67 -78 -93 -112 -127 -143 -153 -160 -171 -198 -180 -104 -80 -43 -2 -7 -90 -67 -53 -58 -63 -33
-0 -115 -205 -160 -83 -31 -19 -20 -7 -2 -2 -1 -0 -0 -2 -24 -47 -52 -71 -77 -86 -122 -119 -127 -153 -169 -173 -182 -204 -220 -0 -0 -160 -18 -2 -11 -3 -79 -79 -50 -24 -28 -126
-0 -0 -211 -166 -115 -42 -24 -18 -11 -1 -1 -2 -0 -0 -11 -39 -67 -80 -91 -95 -119 -122 -137 -133 -142 -140 -149 -136 -137 -138 -169 -199 -93 -4 -3 -6 -35 -72 -74 -69 -67 -58 -67
-0 -0 -122 -196 -147 -103 -26 -24 -14 -6 -6 -0 -0 -7 -42 -74 -92 -111 -130 -123 -123 -99 -102 -91 -97 -101 -107 -118 -113 -123 -133 -153 -76 -2 -1 -1 -67 -102 -81 -58 -45 -51 -55
-0 -140 -201 -190 -163 -147 -51 -34 -23 -25 -26 -15 -26 -60 -89 -127 -157 -174 -189 -88 -85 -79 -84 -92 -92 -94 -102 -109 -113 -116 -118 -115 -81 -3 -5 -5 -82 -113 -100 -74 -47 -33 -25
-0 -175 -0 -146 -134 -136 -141 -86 -71 -63 -63 -66 -87 -92 -145 -78 -122 -94 -80 -94 -97 -103 -100 -103 -116 -124 -132 -139 -127 -126 -97 -101 -35 -2 -4 -37 -89 -126 -109 -90 -60 -40 -25
-0 -0 -0 -7 -109 -61 -71 -87 -111 -118 -129 -148 -153 -155 -45 -38 -10 -22 -56 -95 -111 -117 -122 -123 -122 -115 -90 -88 -82 -68 -79 -32 -9 -5 -23 -91 -90 -119 -115 -110 -85 -61 -56
-0 -0 -0 -52 -107 -70 -39 -49 -70 -81 -98 -85 -30 -8 -39 -12 -12 -58 -41 -71 -85 -85 -75 -70 -59 -48 -47 -7 -45 -45 -18 -1 -0 -5 -45 -87 -112 -107 -118 -106 -111 -99 -67
-0 -0 -0 -0 -51 -0 -9 -40 -35 -14 -18 -12 -20 -34 -66 -71 -42 -26 -5 -30 -31 -54 -8 -31 -16 -6 -16 -14 -12 -1 -1 -1 -3 -5 -63 -85 -134 -139 -111 -104 -90 -104 -85
-0 -0 -0 -0 -94 -56 -1 -38 -35 -31 -40 -44 -56 -70 -76 -68 -13 -18 -0 -2 -1 -1 -13 -10 -20 -32 -45 -50 -51 -67 -66 -74 -59 -49 -45 -77 -97 -101 -103 -106 -83 -81 -90
-0 -0 -0 -0 -0 -113 -63 -37 -21 -49 -61 -55 -88 -67 -21 -3 -1 -2 -4 -5 -6 -17 -16 -42 -40 -74 -69 -37 -26 -55 -73 -88 -106 -107 -88 -79 -79 -97 -97 -85 -79 -56 -29
-0 -0 -0 -130 -86 -61 -19 -22 -44 -76 -75 -67 -89 -122 -95 -42 -50 -14 -10 -19 -38 -92 -113 -114 -118 -128 -135 -99 -77 -100 -114 -86 -58 -44 -23 -27 -71 -198 -100 -33 -31 -45 -19
-0 -188 -174 -67 -57 -23 -31 -38 -51 -81 -83 -115 -216 -333 -306 -241 -174 -141 -96 -136 -253 -275 -273 -277 -259 -238 -220 -180 -174 -222 -222 -167 -116 -65 -60 -3 -111 -360 -480 -481 -345 -116 -38
-30 -287 -204 -136 -116 -98 -110 -152 -174 -209 -226 -305 -100 -0 -0 -0 -0 -363 -330 -169 -0 -0 -0 -0 -0 -0 -0 -341 -0 -0 -0 -0 -272 -75 -153 -241 -178 -219 -0 -0 -0 -323 -211
-0 -257 -282 -211 -120 -196 -228 -211 -262 -197 -0 -0 -0 -0 -0 -0 -0 -0 -0 -0 -0 -0 -0 -0 -0 -0 -0 -0 -0 -0 -0 -160 -152 -196 -343 -0 -0 -0 -0 -0 -0 -0 -0
-91 -1 -283 -241 -281 -315 -272 -276 -130 -0 -0 -0 -0 -0 -0 -0 -0 -0 -0 -0 -0 -0 -0 -0 -0 -0 -0 -0 -0 -0 -285 -399 -240 -271 -49 -0 -0 -0 -0 -0 -0 -0 -0
-1 -2 -0 -1 -1 -240 -0 -243 -0 -0 -0 -0 -0 -0 -0 -0 -0 -0 -0 -0 -0 -0 -0 -0 -0 -0 -0 -0 -0 -0 -313 -87 -0 -0 -0 -0 -0 -0 -0 -0 -0 -0 -0
-0 -0 -1 -190 -0 -0 -1 -2 -1 -0 -0 -0 -0 -0 -0 -0 -0 -0 -0 -0 -0 -0 -0 -0 -0 -0 -0 -0 -0 -0 -0 -211 -0 -0 -0 -0 -0 -0 -0 -0 -0 -0 -0
-0 -0 -1 -1 -0 -0 -1 -0 -0 -0 -0 -0 -0 -0 -0 -0 -0 -0 -0 -0 -0 -0 -0 -0 -0 -0 -0 -0 -0 -0 -0 -0 -0 -0 -0 -0 -0 -0 -0 -0 -0 -0 -0
-0 -0 -0 -1 -1 -1 -0 -0 -1 -0 -1 -0 -0 -0 -0 -0 -0 -0 -0 -0 -0 -0 -0 -0 -0 -0 -0 -0 -0 -0 -0 -0 -0 -0 -0 -0 -0 -0 -0 -0 -0 -0 -0
-0 -0 -0 -2 -1 -1 -0 -1 -2 -1 -0 -0 -0 -0 -0 -0 -0 -0 -0 -0 -0 -0 -0 -0 -0 -0 -0 -0 -0 -0 -0 -0 -0 -0 -0 -0 -0 -0 -0 -0 -0 -0 -0
-0 -0 -3 -2 -1 -0 -0 -0 -0 -0 -0 -0 -0 -0 -0 -0 -0 -0 -0 -0 -0 -0 -0 -0 -0 -0 -0 -0 -0 -0 -0 -0 -0 -0 -0 -0 -0 -0 -0 -0 -0 -0 -0
Wind_Speed
18 20 21 22 23 23 24 23 24 26 27 26 24 20 16 16 18 20 24 24 12 9 12 11 12 21 23 17 14 18 19 21 21 23 22 22 21 18 12 9 15 18 18
18 19 20 22 23 23 23 22 23 25 26 25 24 22 17 15 16 15 7 3 3 3 6 10 12 15 20 21 14 7 20 21 18 18 21 22 22 20 18 16 19 20 20
17 19 20 22 22 23 23 23 23 23 23 23 23 20 17 15 12 5 5 3 3 4 5 10 12 10 11 12 14 11 19 20 16 15 18 19 21 21 20 19 21 21 20
15 18 20 21 22 22 22 23 23 23 22 21 20 19 16 12 7 5 5 6 6 6 6 8 10 9 10 14 12 11 12 9 15 15 12 17 19 21 19 19 19 20 20
15 17 17 19 20 21 21 21 22 22 20 19 18 16 13 11 7 6 7 8 8 8 8 9 11 12 12 10 9 8 8 10 10 11 15 12 19 20 20 19 19 19 19
15 15 17 18 19 20 20 20 20 20 18 17 14 12 10 10 9 9 9 10 10 10 11 11 12 12 11 10 9 9 9 10 10 12 8 22 21 20 20 19 19 18 18
15 15 17 17 18 18 19 19 19 19 17 14 12 9 9 9 10 11 11 12 12 13 13 13 13 13 12 10 10 10 10 10 9 10 20 15 21 20 19 19 18 17 17
11 16 17 17 17 17 16 17 17 18 17 16 12 9 10 10 11 12 13 13 13 14 14 14 15 14 13 12 12 11 11 10 12 18 6 16 20 18 17 17 17 16 16
16 14 15 16 15 14 14 14 14 14 14 14 13 11 11 12 13 13 13 14 15 14 15 15 15 15 15 13 13 12 10 11 12 13 11 17 18 18 16 15 15 15 14
12 13 15 14 14 14 13 12 11 11 12 12 12 12 11 11 11 13 13 15 15 15 16 15 15 16 16 12 12 10 10 12 10 16 13 18 18 16 15 14 14 13 13
9 13 13 15 13 13 13 11 10 10 11 12 13 14 14 14 9 10 14 16 16 16 16 16 16 16 8 12 14 15 11 11 19 19 18 17 18 15 14 13 12 12 11
11 12 14 14 14 14 10 10 11 10 12 12 12 10 11 13 16 18 15 13 13 13 12 12 11 12 14 6 10 11 11 21 18 17 16 17 18 14 12 10 9 9 10
10 11 12 13 13 12 11 9 9 8 8 8 9 10 10 18 9 9 11 9 10 10 9 9 8 13 22 22 23 23 22 21 23 22 16 17 18 16 10 7 7 8 8
8 6 7 8 10 10 8 6 6 6 7 8 8 11 9 9 10 18 20 20 18 19 21 21 22 21 23 23 24 23 24 22 22 23 18 16 18 20 14 5 5 8 7
5 4 5 6 7 7 6 6 6 6 6 9 10 13 20 14 15 17 18 20 20 21 21 22 22 23 24 24 22 22 23 24 24 21 24 16 19 21 23 21 14 5 7
3 4 4 5 5 6 5 5 6 6 9 8 10 14 14 16 16 17 17 19 19 20 22 22 23 24 24 25 25 24 25 25 24 24 23 24 20 22 24 25 25 24 21
3 3 3 3 4 4 5 5 6 6 7 8 11 13 14 16 15 18 18 18 20 23 24 24 25 25 25 26 26 27 26 23 23 23 23 22 19 22 24 25 25 25 22
1 2 2 3 3 4 5 6 7 7 8 10 11 13 15 16 18 17 18 20 24 24 24 25 26 27 26 26 27 26 25 23 22 20 22 22 23 24 23 25 25 24 22
2 4 5 6 4 5 7 8 8 9 10 12 13 15 17 18 20 20 20 22 25 25 25 26 25 25 26 27 26 22 21 19 19 20 21 21 22 23 23 24 24 24 24
2 5 10 9 9 10 12 11 10 11 12 14 16 18 19 20 21 22 22 24 24 24 24 25 23 24 24 27 25 21 20 18 17 17 19 21 22 22 23 23 23 23 24
5 5 9 13 12 12 12 12 12 12 15 16 18 19 20 21 22 23 23 23 22 22 23 24 23 22 24 27 23 17 16 14 16 18 19 21 24 23 24 25 25 25 23
7 6 7 11 13 15 14 15 15 14 16 17 17 18 19 21 22 21 23 22 22 20 22 23 23 22 22 25 25 20 15 13 15 18 19 22 25 24 25 25 26 25 25
9 8 8 9 11 14 14 14 14 14 14 15 16 17 18 19 19 19 20 20 20 20 21 23 23 22 22 22 24 22 19 18 22 15 18 22 25 24 26 25 25 24 25
12 12 11 10 11 12 13 13 14 15 16 16 16 16 16 17 17 17 17 17 19 19 21 22 23 23 21 22 20 20 19 20 21 19 19 24 26 26 27 26 26 24 25
13 13 12 12 12 12 13 14 14 15 15 14 14 14 15 15 15 15 16 16 17 18 19 19 20 21 19 20 20 21 20 18 21 22 24 29 27 25 28 25 26 26 27
12 12 11 10 11 12 13 14 15 14 13 13 13 12 12 13 13 15 15 15 16 17 18 18 19 19 19 19 19 20 21 21 23 24 27 28 30 30 26 27 27 27 28
Wind_Direction
63 72 75 79 78 74 78 74 75 80 83 79 68 56 47 46 49 50 59 55 31 18 17 10 8 31 38 10 359 14 18 36 33 56 44 41 37 22 341 300 152 28 26
69 75 78 83 84 80 77 75 76 81 83 77 73 63 51 44 45 39 172 190 335 316 342 354 356 4 18 22 348 276 96 87 119 116 76 59 47 32 19 3 17 41 39
71 75 80 85 84 84 81 80 80 78 76 74 72 62 52 45 33 2 205 236 284 278 297 340 347 327 330 329 334 307 17 86 132 141 115 103 51 45 44 34 47 51 44
71 78 83 85 85 85 83 84 85 82 74 69 66 62 50 32 3 323 252 231 239 248 263 311 321 302 311 331 315 307 316 170 145 150 159 115 49 54 56 55 58 58 57
76 75 76 83 84 85 84 84 83 79 72 66 62 52 39 24 341 276 255 244 242 237 253 273 312 317 312 289 270 235 210 180 190 177 142 353 41 56 63 69 72 71 61
80 74 82 85 85 87 84 85 82 75 66 59 47 35 18 2 339 279 258 258 259 262 272 281 292 290 280 248 240 221 206 193 195 163 69 64 56 60 67 73 59 64 72
83 76 85 86 88 85 85 86 85 81 64 48 35 4 340 324 305 302 268 258 264 271 271 270 280 268 272 246 236 217 204 198 198 67 81 127 47 72 75 74 79 83 79
65 88 89 90 88 91 81 82 83 84 69 61 34 345 310 300 295 300 293 262 258 252 259 256 263 255 248 241 234 221 210 194 198 83 134 105 64 80 91 91 96 94 91
96 80 90 92 93 86 82 77 71 63 53 55 37 360 311 291 289 290 303 280 260 241 251 249 247 253 247 234 228 225 172 161 165 84 153 54 61 73 91 101 105 105 100
87 87 101 93 96 97 93 83 66 56 55 51 42 24 1 70 355 312 320 317 296 295 303 296 274 272 265 214 153 165 149 137 161 345 94 42 47 65 75 88 100 112 111
80 99 95 110 95 104 101 86 78 75 71 79 99 114 126 129 43 45 325 314 320 317 321 315 293 269 71 93 59 51 130 108 26 7 18 37 34 53 65 79 94 105 106
104 107 107 107 107 108 77 80 103 89 102 105 93 55 99 350 305 285 321 349 353 11 37 44 37 180 194 294 69 59 48 317 357 15 23 23 23 42 62 74 101 121 114
105 107 113 113 115 112 107 87 90 70 61 27 16 12 13 303 27 33 350 38 35 42 66 57 85 349 310 302 283 306 319 328 308 320 14 13 8 17 61 94 125 142 141
97 87 83 95 109 112 83 66 60 49 41 32 31 358 14 28 5 311 302 304 320 316 312 312 301 316 305 312 303 310 313 323 330 329 351 5 357 348 11 83 150 177 161
92 75 89 79 97 99 56 56 24 17 31 1 4 343 295 334 326 322 321 309 314 314 314 312 312 313 304 306 319 319 317 316 321 334 319 357 350 343 331 337 353 12 186
74 79 59 79 75 92 78 26 21 15 348 13 354 335 336 321 324 322 327 319 320 320 318 316 316 316 312 304 308 315 315 316 320 323 329 331 343 346 340 335 325 322 326
66 52 59 43 40 21 359 10 12 19 16 1 351 343 337 326 333 319 324 324 320 313 311 312 311 312 313 310 312 313 315 324 324 325 328 336 352 348 343 339 337 333 333
4 348 5 11 13 19 346 349 356 354 349 346 345 342 333 329 323 323 322 319 312 310 311 313 311 311 314 315 317 319 321 324 326 331 333 331 332 333 340 340 342 339 342
288 292 301 309 325 326 324 329 335 337 335 330 328 328 323 322 318 316 316 315 310 310 311 313 315 318 317 318 321 328 331 334 332 335 337 338 337 336 336 336 337 338 337
270 281 287 291 299 302 300 304 313 318 318 320 320 319 316 316 315 311 314 311 310 311 312 314 317 319 322 319 321 328 334 340 342 339 336 338 339 339 339 338 337 335 335
273 272 277 282 286 291 295 298 300 304 308 312 313 313 314 314 315 312 311 313 317 315 315 317 316 322 322 322 323 332 344 352 345 339 338 336 333 334 335 333 332 331 332
273 271 272 279 283 287 294 297 303 306 311 312 317 320 320 317 313 314 310 311 313 319 319 320 321 319 324 327 321 321 330 340 347 339 337 338 335 335 335 336 335 334 330
265 270 276 279 285 286 295 302 305 312 315 315 319 321 323 323 321 321 317 316 314 318 322 321 322 321 322 323 331 323 322 322 325 336 338 338 336 337 335 335 336 335 333
268 275 279 282 286 289 291 297 299 305 308 317 320 326 329 331 329 328 325 324 315 318 321 320 321 325 323 320 331 336 335 329 320 319 329 335 335 334 334 332 332 333 332
269 274 279 283 284 290 290 296 299 304 313 317 326 328 332 337 338 336 333 330 325 323 327 330 332 335 340 331 326 325 326 329 329 321 317 322 329 333 330 329 331 328 327
270 274 279 282 286 291 294 297 301 306 312 316 321 326 332 337 343 341 339 337 335 332 330 332 336 339 337 331 331 328 326 324 323 322 319 321 322 324 330 330 328 326 326